When you browse on this site, cookies collect data to enhance your experience and personalize the content and advertising you see.
Visit our Privacy Policy to learn more. By continuing to use the site, you agree to this use of cookies and data.

Hourly Weather Kutaisi

Today, 13 August, Thursday

Time Temperature Precipitation Wind Pressure Humidity
00:00 +21°C° 0 mm 1 mps 747 mmHg 95%
01:00 +21°C° 0 mm 1 mps 747 mmHg 95%
02:00 +21°C° 0 mm 1 mps 746 mmHg 95%
03:00 +21°C° 0 mm 1 mps 746 mmHg 94%
04:00 +21°C° 0 mm 1 mps 746 mmHg 93%
05:00 +21°C° 0 mm 1 mps 746 mmHg 92%
06:00 +21°C° 0 mm 1 mps 746 mmHg 91%
07:00 +23°C° 0.1 mm 1 mps 746 mmHg 86%
08:00 +25°C° 0.1 mm 1 mps 746 mmHg 80%
09:00 +25°C° 0.1 mm 0 mps 746 mmHg 74%
10:00 +27°C° 0.4 mm 1 mps 746 mmHg 72%
11:00 +28°C° 0.4 mm 2 mps 746 mmHg 70%
12:00 +29°C° 0.4 mm 3 mps 746 mmHg 67%
13:00 +29°C° 0.4 mm 4 mps 745 mmHg 68%
14:00 +28°C° 0.4 mm 4 mps 745 mmHg 68%
15:00 +28°C° 0.4 mm 4 mps 745 mmHg 69%
16:00 +27°C° 0.2 mm 4 mps 745 mmHg 73%
17:00 +26°C° 0.2 mm 3 mps 745 mmHg 77%
18:00 +26°C° 0.2 mm 3 mps 746 mmHg 81%
19:00 +24°C° 0.2 mm 2 mps 746 mmHg 85%
20:00 +23°C° 0.2 mm 2 mps 746 mmHg 89%
21:00 +21°C° 0.2 mm 1 mps 747 mmHg 93%
22:00 +21°C° 0.1 mm 1 mps 747 mmHg 93%
23:00 +21°C° 0.1 mm 1 mps 747 mmHg 93%

Tomorrow, 14 August, Friday

Time Temperature Precipitation Wind Pressure Humidity
00:00 +18°C° 0.1 mm 0 mps 747 mmHg 93%
01:00 +20°C° 0 mm 1 mps 747 mmHg 92%
02:00 +20°C° 0 mm 1 mps 746 mmHg 92%
03:00 +20°C° 0 mm 1 mps 746 mmHg 92%
04:00 +20°C° 0 mm 1 mps 746 mmHg 91%
05:00 +20°C° 0 mm 1 mps 746 mmHg 91%
06:00 +20°C° 0 mm 1 mps 746 mmHg 91%
07:00 +22°C° 0.1 mm 1 mps 746 mmHg 84%
08:00 +24°C° 0.1 mm 1 mps 745 mmHg 77%
09:00 +26°C° 0.1 mm 1 mps 745 mmHg 71%
10:00 +27°C° 0.1 mm 2 mps 745 mmHg 65%
11:00 +28°C° 0.1 mm 3 mps 745 mmHg 59%
12:00 +29°C° 0.1 mm 3 mps 744 mmHg 53%
13:00 +29°C° 0.3 mm 4 mps 744 mmHg 57%
14:00 +28°C° 0.3 mm 4 mps 744 mmHg 61%
15:00 +28°C° 0.3 mm 5 mps 744 mmHg 65%
16:00 +27°C° 0.3 mm 4 mps 744 mmHg 70%
17:00 +26°C° 0.3 mm 4 mps 744 mmHg 75%
18:00 +24°C° 0.3 mm 3 mps 744 mmHg 81%
19:00 +22°C° 0.2 mm 3 mps 745 mmHg 84%
20:00 +21°C° 0.2 mm 2 mps 745 mmHg 88%
21:00 +20°C° 0.2 mm 1 mps 746 mmHg 92%
22:00 +20°C° 0.2 mm 1 mps 746 mmHg 93%
23:00 +20°C° 0.2 mm 1 mps 746 mmHg 93%

Day after tomorrow, 15 August, Saturday

Time Temperature Precipitation Wind Pressure Humidity
00:00 +17°C° 0.2 mm 0 mps 746 mmHg 94%
01:00 +17°C° 0.2 mm 0 mps 746 mmHg 94%
02:00 +17°C° 0.2 mm 0 mps 746 mmHg 95%
03:00 +17°C° 0.2 mm 0 mps 746 mmHg 95%
04:00 +17°C° 0.3 mm 0 mps 746 mmHg 95%
05:00 +19°C° 0.3 mm 1 mps 746 mmHg 95%
06:00 +19°C° 0.3 mm 1 mps 746 mmHg 95%
07:00 +20°C° 0.2 mm 1 mps 746 mmHg 91%
08:00 +22°C° 0.2 mm 1 mps 746 mmHg 87%
09:00 +23°C° 0.2 mm 1 mps 746 mmHg 83%
10:00 +24°C° 0.1 mm 2 mps 746 mmHg 74%
11:00 +26°C° 0.1 mm 3 mps 746 mmHg 65%
12:00 +27°C° 0.1 mm 4 mps 745 mmHg 56%
13:00 +27°C° 0.1 mm 4 mps 745 mmHg 57%
14:00 +27°C° 0.1 mm 5 mps 745 mmHg 58%
15:00 +27°C° 0.1 mm 5 mps 745 mmHg 59%
16:00 +26°C° 0 mm 4 mps 745 mmHg 63%
17:00 +25°C° 0 mm 4 mps 745 mmHg 67%
18:00 +25°C° 0 mm 3 mps 746 mmHg 71%
19:00 +23°C° 0 mm 2 mps 746 mmHg 77%
20:00 +21°C° 0 mm 1 mps 746 mmHg 83%
21:00 +20°C° 0 mm 1 mps 747 mmHg 89%
22:00 +19°C° 0 mm 1 mps 747 mmHg 89%
23:00 +19°C° 0 mm 1 mps 746 mmHg 88%

16 August, Sunday

Time Temperature Precipitation Wind Pressure Humidity
00:00 +19°C° 0 mm 1 mps 746 mmHg 88%
01:00 +19°C° 0 mm 1 mps 746 mmHg 87%
02:00 +19°C° 0 mm 1 mps 746 mmHg 86%
03:00 +18°C° 0 mm 2 mps 746 mmHg 85%
04:00 +19°C° 0 mm 1 mps 746 mmHg 84%
05:00 +19°C° 0 mm 1 mps 746 mmHg 84%
06:00 +19°C° 0 mm 1 mps 745 mmHg 84%
07:00 +21°C° 0 mm 1 mps 745 mmHg 75%
08:00 +24°C° 0 mm 1 mps 745 mmHg 66%
09:00 +26°C° 0 mm 1 mps 745 mmHg 58%
10:00 +27°C° 0 mm 1 mps 745 mmHg 55%
11:00 +28°C° 0 mm 2 mps 745 mmHg 53%
12:00 +29°C° 0 mm 2 mps 745 mmHg 51%
13:00 +29°C° 0.1 mm 3 mps 745 mmHg 52%
14:00 +29°C° 0.1 mm 3 mps 745 mmHg 54%
15:00 +29°C° 0.1 mm 4 mps 745 mmHg 56%
16:00 +27°C° 0.1 mm 4 mps 745 mmHg 62%
17:00 +26°C° 0.1 mm 3 mps 745 mmHg 69%
18:00 +25°C° 0.1 mm 3 mps 745 mmHg 75%
19:00 +24°C° 0.1 mm 2 mps 745 mmHg 78%
20:00 +23°C° 0.1 mm 2 mps 746 mmHg 81%
21:00 +22°C° 0.1 mm 1 mps 746 mmHg 83%
22:00 +22°C° 0.1 mm 1 mps 746 mmHg 84%
23:00 +19°C° 0.1 mm 0 mps 746 mmHg 84%

17 August, Monday

Time Temperature Precipitation Wind Pressure Humidity
00:00 +19°C° 0.1 mm 0 mps 746 mmHg 84%
01:00 +19°C° 0 mm 0 mps 746 mmHg 85%
02:00 +19°C° 0 mm 0 mps 746 mmHg 86%
03:00 +18°C° 0 mm 0 mps 746 mmHg 87%
04:00 +20°C° 0 mm 1 mps 746 mmHg 88%
05:00 +20°C° 0 mm 1 mps 746 mmHg 89%
06:00 +20°C° 0 mm 1 mps 746 mmHg 89%
07:00 +22°C° 0.1 mm 1 mps 746 mmHg 81%
08:00 +24°C° 0.1 mm 1 mps 746 mmHg 73%
09:00 +26°C° 0.1 mm 1 mps 746 mmHg 65%
10:00 +27°C° 0.2 mm 1 mps 746 mmHg 61%
11:00 +28°C° 0.2 mm 1 mps 746 mmHg 58%
12:00 +29°C° 0.2 mm 2 mps 746 mmHg 55%
13:00 +29°C° 0.5 mm 2 mps 746 mmHg 58%
14:00 +29°C° 0.5 mm 2 mps 746 mmHg 62%
15:00 +28°C° 0.5 mm 3 mps 745 mmHg 65%
16:00 +27°C° 0.9 mm 2 mps 745 mmHg 73%
17:00 +26°C° 0.9 mm 2 mps 745 mmHg 81%
18:00 +24°C° 0.9 mm 1 mps 745 mmHg 88%
19:00 +23°C° 0.2 mm 1 mps 746 mmHg 89%
20:00 +22°C° 0.2 mm 1 mps 746 mmHg 91%
21:00 +21°C° 0.2 mm 1 mps 746 mmHg 92%
22:00 +19°C° 0 mm 2 mps 746 mmHg 91%
23:00 +19°C° 0 mm 2 mps 746 mmHg 90%

18 August, Tuesday

Time Temperature Precipitation Wind Pressure Humidity
00:00 +18°C° 0 mm 3 mps 746 mmHg 89%
01:00 +18°C° 0 mm 3 mps 746 mmHg 87%
02:00 +18°C° 0 mm 3 mps 745 mmHg 85%
03:00 +18°C° 0 mm 3 mps 745 mmHg 83%
04:00 +18°C° 0 mm 3 mps 745 mmHg 81%
05:00 +18°C° 0 mm 3 mps 745 mmHg 79%
06:00 +18°C° 0 mm 3 mps 745 mmHg 76%
07:00 +21°C° 0 mm 4 mps 745 mmHg 66%
08:00 +25°C° 0 mm 4 mps 744 mmHg 56%
09:00 +27°C° 0 mm 5 mps 744 mmHg 46%
10:00 +29°C° 0 mm 5 mps 744 mmHg 42%
11:00 +32°C° 0 mm 5 mps 743 mmHg 38%
12:00 +33°C° 0 mm 5 mps 743 mmHg 34%
13:00 +33°C° 0 mm 5 mps 743 mmHg 34%
14:00 +33°C° 0 mm 4 mps 742 mmHg 35%
15:00 +34°C° 0 mm 4 mps 742 mmHg 35%
16:00 +32°C° 0 mm 4 mps 742 mmHg 45%
17:00 +29°C° 0 mm 3 mps 742 mmHg 55%
18:00 +27°C° 0 mm 2 mps 742 mmHg 65%
19:00 +25°C° 0 mm 2 mps 742 mmHg 73%
20:00 +23°C° 0 mm 1 mps 743 mmHg 80%
21:00 +21°C° 0 mm 1 mps 743 mmHg 88%
22:00 +21°C° 0 mm 1 mps 743 mmHg 85%
23:00 +20°C° 0 mm 1 mps 743 mmHg 82%
Show more